Weather History for Cincinnati, OH

Change the Weather History Date:

Saturday, December 6, 2014

  Actual Average Record
Temperature  
Mean Temperature 42 °F -  
Max Temperature 48 °F 46 °F 73 °F (1998)
Min Temperature 37 °F 27 °F 2 °F (1977)
Degree Days  
Heating Degree Days 22    
Moisture  
Dew Point 39 °F    
Average Humidity 87    
Maximum Humidity 100    
Minimum Humidity 67    
Precipitation  
Precipitation 0.45 in - - ()
Sea Level Pressure  
Sea Level Pressure 30.26 in    
Wind  
Wind Speed 7 mph (North)    
Max Wind Speed 20 mph    
Max Gust Speed 29 mph    
Visibility 6 miles    
Events Rain    
Averages and records for this station are not official NWS values.
T = Trace of Precipitation, MM = Missing Value Source: NWS Daily Summary

Daily Weather History Graph

Daily Weather History Graph

Search for Another Location

Airport:

Trip Planner

Search our weather history database for the weather conditions in past years. The results will help you decide how hot, cold, wet, or windy it might be!

Date:

Astronomy

Dec. 06, 2014 Rise Set
Actual Time 7:42 AM EST 5:14 PM EST
Civil Twilight 7:12 AM EST 5:44 PM EST
Nautical Twilight 6:39 AM EST 6:17 PM EST
Astronomical Twilight 6:07 AM EST 6:50 PM EST
Moon 5:50 PM EST (12/6) 7:32 AM EST (12/6)
Length of Visible Light 10h 31m
Length of Day
9h 32m
Full, 100% of the Moon is Illuminated
Dec 6
Full
Dec 14
Last Quarter
Dec 21
New
Dec 28
First Quarter
Jan 4
Full

Hourly Weather History & Observations

Time (EST) Temp. Windchill Dew Point Humidity Pressure Visibility Wind Dir Wind Speed Gust Speed Precip Events Conditions
12:12 AM 46.0 °F - 46.0 °F 100% 30.04 in 5.0 mi Calm Calm - 0.01 in Rain Light Rain
12:53 AM 46.9 °F - 46.9 °F 100% 30.04 in 4.0 mi Calm Calm - 0.04 in Rain Heavy Rain
1:53 AM 48.0 °F - 48.0 °F 100% 30.01 in 3.0 mi East 3.5 mph - 0.05 in Rain Light Rain
1:59 AM 48.0 °F - 48.0 °F 100% 30.01 in 1.8 mi Calm Calm - 0.02 in Rain Rain
2:09 AM 48.0 °F - 48.0 °F 100% 30.01 in 2.0 mi Calm Calm - 0.05 in Rain Rain
2:37 AM 46.9 °F - 46.9 °F 100% 30.02 in 4.0 mi NNW 3.5 mph - 0.12 in Rain Light Rain
2:53 AM 46.9 °F - 45.0 °F 93% 30.03 in 4.0 mi North 10.4 mph - 0.13 in Rain Light Rain
3:19 AM 46.0 °F 41.4 °F 45.0 °F 96% 30.03 in 2.5 mi NNE 9.2 mph - 0.02 in Rain Light Rain
3:49 AM 46.4 °F 41.9 °F 44.6 °F 93% 30.04 in 4.0 mi North 9.2 mph - 0.06 in Rain Light Rain
3:53 AM 45.0 °F 39.3 °F 44.1 °F 97% 30.05 in 4.0 mi North 11.5 mph - 0.06 in Rain Light Rain
8:53 AM 39.9 °F 31.4 °F 39.0 °F 97% 30.19 in 6.0 mi North 16.1 mph 21.9 mph 0.04 in Rain Light Rain
9:24 AM 39.0 °F 31.4 °F 37.9 °F 96% 30.19 in 2.5 mi North 12.7 mph 21.9 mph 0.02 in Rain Rain
9:40 AM 39.0 °F 32.3 °F 39.0 °F 100% 30.20 in 4.0 mi North 10.4 mph - 0.04 in Rain Light Rain
9:53 AM 39.0 °F 32.8 °F 37.9 °F 96% 30.22 in 5.0 mi North 9.2 mph - 0.06 in Rain Light Rain
10:53 AM 39.0 °F 31.4 °F 37.0 °F 93% 30.26 in 8.0 mi North 12.7 mph - 0.06 in Rain Light Rain
11:53 AM 39.9 °F 31.4 °F 37.0 °F 89% 30.28 in 8.0 mi North 16.1 mph 21.9 mph 0.01 in Rain Light Rain
12:33 PM 39.9 °F 32.9 °F 37.0 °F 89% 30.28 in 6.0 mi North 11.5 mph - 0.00 in   Overcast
12:53 PM 39.9 °F 32.9 °F 36.0 °F 86% 30.30 in 6.0 mi North 11.5 mph - 0.00 in   Overcast
1:53 PM 41.0 °F 33.1 °F 35.1 °F 79% 30.32 in 9.0 mi North 15.0 mph 21.9 mph N/A   Overcast
2:53 PM 41.0 °F 34.7 °F 35.1 °F 79% 30.35 in 8.0 mi North 10.4 mph - N/A   Overcast
3:53 PM 41.0 °F 34.7 °F 34.0 °F 76% 30.39 in 10.0 mi North 10.4 mph - N/A   Overcast
4:53 PM 41.0 °F 34.7 °F 33.1 °F 73% 30.43 in 10.0 mi North 10.4 mph 20.7 mph N/A   Overcast
5:53 PM 41.0 °F 34.3 °F 33.1 °F 73% 30.45 in 10.0 mi North 11.5 mph 19.6 mph N/A   Overcast
6:53 PM 41.0 °F 31.9 °F 33.1 °F 73% 30.49 in 10.0 mi North 19.6 mph 28.8 mph N/A   Overcast
7:53 PM 39.9 °F 35.1 °F 33.1 °F 77% 30.52 in 10.0 mi North 6.9 mph - N/A   Overcast
8:53 PM 39.9 °F 32.1 °F 32.0 °F 73% 30.55 in 10.0 mi NNE 13.8 mph - N/A   Overcast
9:53 PM 39.9 °F 32.9 °F 30.0 °F 68% 30.56 in 10.0 mi NNE 11.5 mph 20.7 mph N/A   Overcast
10:53 PM 37.9 °F 30.0 °F 28.0 °F 68% 30.56 in 10.0 mi NNE 12.7 mph - N/A   Overcast
11:53 PM 37.0 °F 28.9 °F 27.0 °F 67% 30.58 in 10.0 mi NNE 12.7 mph - N/A   Overcast